DW2465 Weather Reports


time (UTC)temp
F
wind
direction
speed
knots
gust
knots
rain 1hr
in
rain 24hr
in
rain mn
in
humidity
%
barometer
mb
20260502203030 65 196 0.0 0.0 0.00 0.00 0.00 33 1012.5
20260502201534 63 206 0.0 0.0 0.00 0.00 0.00 34 1012.9
20260502200021 64 298 0.0 0.0 0.00 0.00 0.00 32 1013.1
20260502194517 63 223 0.0 0.0 0.00 0.00 0.00 33 1013.5
20260502193013 61 184 0.0 0.0 0.00 0.00 0.00 33 1013.9
20260502191542 61 279 0.0 0.0 0.00 0.00 0.00 33 1014.2
20260502190044 60 205 0.0 0.0 0.00 0.00 0.00 36 1014.6
20260502184510 60 211 0.0 0.0 0.00 0.00 0.00 33 1014.8
20260502183006 59 250 0.0 0.0 0.00 0.00 0.00 34 1015.1
20260502181601 58 227 0.0 0.0 0.00 0.00 0.00 33 1015.3
20260502163038 54 178 0.0 0.0 0.00 0.00 0.00 37 1017.1
20260502161535 54 225 0.0 0.0 0.00 0.00 0.00 36 1017.4
20260502151520 51 209 0.0 0.0 0.00 0.00 0.00 44 1018.1
20260502123048 41 250 0.0 0.0 0.00 0.00 0.00 63 1018.6
20260502121537 40 273 0.0 0.0 0.00 0.00 0.00 66 1018.6
20260502114537 39 246 0.0 0.0 0.00 0.00 0.00 68 1018.6
20260502113039 38 247 0.0 0.0 0.00 0.00 0.00 68 1018.6
20260502111534 38 252 0.0 0.0 0.00 0.00 0.00 67 1018.5
20260502110037 38 252 0.0 0.0 0.00 0.00 0.00 66 1018.3
20260502104536 38 248 0.0 0.0 0.00 0.00 0.00 65 1018.5
20260502103030 39 238 0.0 0.0 0.00 0.00 0.00 64 1018.5
20260502101529 39 236 0.0 0.0 0.00 0.00 0.00 63 1018.4
20260502091504 40 228 0.0 0.0 0.00 0.00 0.00 60 1018.2
20260502064548 43 240 0.0 0.0 0.00 0.00 0.00 52 1018.8
20260502063019 43 246 0.0 0.0 0.00 0.00 0.00 51 1018.8
20260502061514 43 256 0.0 0.0 0.00 0.00 0.00 51 1018.8
20260502060044 44 252 0.0 0.0 0.00 0.00 0.00 51 1018.8
20260502054557 44 256 0.0 0.0 0.00 0.00 0.00 50 1018.9
20260502053037 44 249 0.0 0.0 0.00 0.00 0.00 50 1018.8
20260502051537 44 259 0.0 0.0 0.00 0.00 0.00 49 1018.8
20260502050032 44 247 0.0 0.0 0.00 0.00 0.00 49 1018.8
20260502044532 44 252 0.0 0.0 0.00 0.00 0.00 49 1018.8
20260502043032 44 255 0.0 0.0 0.00 0.00 0.00 50 1018.7
20260502041552 44 261 0.0 0.0 0.00 0.00 0.00 49 1018.7
20260502040046 44 264 0.0 0.0 0.00 0.00 0.00 47 1018.7
20260502034529 44 263 0.0 0.0 0.00 0.00 0.00 46 1018.7
20260502033032 44 271 0.0 0.0 0.00 0.00 0.00 46 1018.7
20260502031526 45 274 0.0 0.0 0.00 0.00 0.00 44 1018.7
20260502030030 45 300 0.0 0.0 0.00 0.00 0.00 43 1018.7
20260502024525 45 300 0.0 0.0 0.00 0.00 0.00 43 1018.8
20260502023030 45 301 0.0 0.0 0.00 0.00 0.00 44 1018.9
20260502021521 45 301 0.0 0.0 0.00 0.00 0.00 43 1018.7
20260502020021 46 301 0.0 0.0 0.00 0.00 0.00 42 1018.6
20260502014524 48 301 0.0 0.0 0.00 0.00 0.00 39 1018.4
20260502013018 49 301 0.0 0.0 0.00 0.00 0.00 37 1018.3
20260502011518 50 301 0.0 0.0 0.00 0.00 0.00 35 1018.2
20260502010017 50 299 0.0 0.0 0.00 0.00 0.00 35 1018.2
20260502004517 51 301 0.0 0.0 0.00 0.00 0.00 33 1018.2
20260502003013 51 297 0.0 0.0 0.00 0.00 0.00 33 1018.2
20260502001516 51 343 0.0 0.0 0.00 0.00 0.00 34 1018.1
20260502000014 51 277 0.0 0.0 0.00 0.00 0.00 33 1018.2
20260501234514 52 325 0.0 0.0 0.00 0.00 0.00 33 1018.2
20260501233010 51 351 0.0 0.0 0.00 0.00 0.00 33 1018.1
20260501231509 51 351 0.0 0.0 0.00 0.00 0.00 34 1018.2
20260501230019 52 304 0.0 0.0 0.00 0.00 0.00 34 1018.2
20260501224508 52 300 0.0 0.0 0.00 0.00 0.00 33 1018.3
20260501223005 51 327 0.0 0.0 0.00 0.00 0.00 34 1018.3
20260501221504 51 328 0.0 0.0 0.00 0.00 0.00 34 1018.4
20260501220003 51 292 0.0 0.0 0.00 0.00 0.00 34 1018.4
20260501214505 50 300 0.0 0.0 0.00 0.00 0.00 34 1018.5
20260501213105 52 360 0.0 0.0 0.00 0.00 0.00 35 1018.4
20260501211557 51 288 0.0 0.0 0.00 0.00 0.00 34 1018.4
20260501210127 49 351 0.0 0.0 0.00 0.00 0.00 36 1018.6
20260501204556 49 338 0.0 0.0 0.00 0.00 0.00 38 1018.7